Вернуться в каталог

BPA 3/SL-24

АктивенНаукаPO
NORAD 39448·PAYLOAD·🇺🇦 Ukraine

Запущен Nov 21, 2013 с Dombarovsky

Loading…

Ближайшие Пролёты (ближайшие 24 часа)

TLE

СвежийSource: Space-Track

Эпоха: Sep 14, 2026, 07:31 UTC

1 39448U 13066AJ  26257.31358312  .00000100  00000-0  55577-4 0  9996
2 39448  97.6884  42.5938 0677893 149.4655 214.7840 13.43262063627851

Отслеживайте BPA 3/SL-24 в реальном времени с AllMySat

Download on the App Store